contact:dominique.lefevre@mio.osupytheas.fr, maurice.libes@osupytheas.fr, didier.mallarino@osupytheas.fr
Project:EMSO http://www.emso-fr.org/EMSO-France
Depth: 2436.0 m
Title:EMSO Ligure Ouest : Data MII capteur CSTAR
DateTime,Latitude,Longitude,Instrument_Serial,Reference_Counts,Signal_Counts,Corrected_Signal_raw_counts,Calculated_Beam_c_inverse_meters,Internal_thermistor_counts
DateTime,Latitude,Longitude,Instrument_Serial,Reference_Counts,Signal_Counts,Corrected_Signal_raw_counts,Calculated_Beam_c_inverse_meters,Internal_thermistor_counts
2020-10-24T00:01:49,42.805,6.029,CST-1368DR,5894,8249,15085,0.138,551
2020-10-24T00:04:50,42.805,6.029,CST-1368DR,5893,8249,15087,0.138,551
2020-10-24T00:07:52,42.805,6.029,CST-1368DR,5893,8248,15086,0.138,551
2020-10-24T00:15:06,42.805,6.029,CST-1368DR,5893,8248,15086,0.138,551
2020-10-24T00:18:08,42.805,6.029,CST-1368DR,5892,8247,15085,0.138,551
2020-10-24T00:21:09,42.805,6.029,CST-1368DR,5892,8247,15086,0.138,551
2020-10-24T00:24:11,42.805,6.029,CST-1368DR,5892,8246,15084,0.139,551
2020-10-24T00:35:06,42.805,6.029,CST-1368DR,5889,8241,15083,0.139,552
2020-10-24T00:38:08,42.805,6.029,CST-1368DR,5890,8245,15087,0.138,551
2020-10-24T00:41:09,42.805,6.029,CST-1368DR,5890,8245,15088,0.138,551
2020-10-24T00:44:11,42.805,6.029,CST-1368DR,5890,8244,15086,0.138,551
2020-10-24T00:47:12,42.805,6.029,CST-1368DR,5890,8243,15084,0.139,551
2020-10-24T00:50:14,42.805,6.029,CST-1368DR,5890,8232,15063,0.144,551
2020-10-24T02:00:06,42.805,6.029,CST-1368DR,5887,8241,15087,0.138,552
2020-10-24T02:03:08,42.805,6.029,CST-1368DR,5888,8240,15082,0.139,551
2020-10-24T02:10:06,42.805,6.029,CST-1368DR,5886,8240,15088,0.138,552
2020-10-24T02:13:08,42.805,6.029,CST-1368DR,5888,8241,15085,0.138,551
2020-10-24T02:16:09,42.805,6.029,CST-1368DR,5888,8241,15084,0.139,551
2020-10-24T02:19:11,42.805,6.029,CST-1368DR,5888,8242,15086,0.138,551
2020-10-24T02:22:13,42.805,6.029,CST-1368DR,5888,8241,15085,0.138,551
2020-10-24T02:30:06,42.805,6.029,CST-1368DR,5887,8238,15082,0.139,551
2020-10-24T02:33:08,42.805,6.029,CST-1368DR,5887,8240,15086,0.138,551
2020-10-24T02:36:09,42.805,6.029,CST-1368DR,5887,8240,15086,0.138,551
2020-10-24T02:39:11,42.805,6.029,CST-1368DR,5887,8240,15085,0.138,551
2020-10-24T02:42:13,42.805,6.029,CST-1368DR,5887,8240,15086,0.138,551
2020-10-24T02:45:14,42.805,6.029,CST-1368DR,5887,8240,15085,0.138,551
2020-10-24T02:48:16,42.805,6.029,CST-1368DR,5887,8239,15084,0.139,551
2020-10-24T02:51:17,42.805,6.029,CST-1368DR,5887,8238,15082,0.139,551
2020-10-24T02:54:19,42.805,6.029,CST-1368DR,5887,8239,15084,0.139,551
2020-10-24T02:57:20,42.805,6.029,CST-1368DR,5886,8239,15086,0.138,551
2020-10-24T03:00:22,42.805,6.029,CST-1368DR,5886,8238,15084,0.139,551
2020-10-24T03:03:24,42.805,6.029,CST-1368DR,5886,8237,15083,0.139,551
2020-10-24T03:06:25,42.805,6.029,CST-1368DR,5886,8238,15083,0.139,551
2020-10-24T03:09:27,42.805,6.029,CST-1368DR,5886,8237,15083,0.139,551
2020-10-24T03:12:28,42.805,6.029,CST-1368DR,5885,8235,15082,0.139,551
2020-10-24T03:15:30,42.805,6.029,CST-1368DR,5885,8236,15084,0.139,551
2020-10-24T03:18:32,42.805,6.029,CST-1368DR,5885,8237,15084,0.139,551
2020-10-24T03:21:33,42.805,6.029,CST-1368DR,5885,8237,15084,0.139,551
2020-10-24T03:24:35,42.805,6.029,CST-1368DR,5885,8236,15083,0.139,551
2020-10-24T03:27:36,42.805,6.029,CST-1368DR,5885,8236,15084,0.139,551
2020-10-24T03:30:38,42.805,6.029,CST-1368DR,5884,8236,15085,0.138,551
2020-10-24T03:33:39,42.805,6.029,CST-1368DR,5884,8235,15084,0.139,551
2020-10-24T03:36:41,42.805,6.029,CST-1368DR,5884,8236,15085,0.138,551
2020-10-24T03:39:43,42.805,6.029,CST-1368DR,5884,8235,15083,0.139,551
2020-10-24T03:42:44,42.805,6.029,CST-1368DR,5884,8234,15082,0.139,551
2020-10-24T03:45:46,42.805,6.029,CST-1368DR,5884,8235,15084,0.139,551
2020-10-24T03:48:47,42.805,6.029,CST-1368DR,5884,8234,15082,0.139,551
2020-10-24T03:51:49,42.805,6.029,CST-1368DR,5884,8235,15083,0.139,551
2020-10-24T03:54:50,42.805,6.029,CST-1368DR,5883,8235,15086,0.138,551
2020-10-24T03:57:52,42.805,6.029,CST-1368DR,5883,8234,15084,0.139,551
2020-10-24T04:00:54,42.805,6.029,CST-1368DR,5883,8234,15084,0.139,551
2020-10-24T04:03:55,42.805,6.029,CST-1368DR,5883,8234,15084,0.139,551
2020-10-24T04:06:57,42.805,6.029,CST-1368DR,5883,8234,15083,0.139,551
2020-10-24T04:09:58,42.805,6.029,CST-1368DR,5883,8234,15083,0.139,551
2020-10-24T04:13:00,42.805,6.029,CST-1368DR,5883,8233,15083,0.139,551
2020-10-24T04:16:02,42.805,6.029,CST-1368DR,5882,8233,15084,0.139,551
2020-10-24T04:19:03,42.805,6.029,CST-1368DR,5882,8232,15083,0.139,551
2020-10-24T04:22:05,42.805,6.029,CST-1368DR,5882,8232,15082,0.139,551
2020-10-24T04:25:06,42.805,6.029,CST-1368DR,5882,8232,15084,0.139,551
2020-10-24T04:28:08,42.805,6.029,CST-1368DR,5882,8232,15082,0.139,551
2020-10-24T04:31:09,42.805,6.029,CST-1368DR,5882,8232,15082,0.139,551
2020-10-24T04:34:11,42.805,6.029,CST-1368DR,5882,8231,15080,0.140,551
2020-10-24T04:37:13,42.805,6.029,CST-1368DR,5882,8232,15083,0.139,551
2020-10-24T04:40:14,42.805,6.029,CST-1368DR,5882,8232,15083,0.139,551
2020-10-24T04:43:16,42.805,6.029,CST-1368DR,5882,8232,15083,0.139,551
2020-10-24T04:46:17,42.805,6.029,CST-1368DR,5881,8231,15084,0.139,551
2020-10-24T04:49:19,42.805,6.029,CST-1368DR,5881,8231,15083,0.139,551
2020-10-24T04:52:20,42.805,6.029,CST-1368DR,5881,8231,15084,0.139,551
2020-10-24T04:55:22,42.805,6.029,CST-1368DR,5881,8229,15080,0.140,551
2020-10-24T04:58:24,42.805,6.029,CST-1368DR,5881,8230,15082,0.139,551
2020-10-24T05:01:25,42.805,6.029,CST-1368DR,5881,8230,15082,0.139,551
2020-10-24T05:04:27,42.805,6.029,CST-1368DR,5881,8230,15081,0.139,551
2020-10-24T05:07:28,42.805,6.029,CST-1368DR,5881,8230,15082,0.139,551
2020-10-24T05:10:30,42.805,6.029,CST-1368DR,5880,8230,15083,0.139,550
2020-10-24T05:13:32,42.805,6.029,CST-1368DR,5880,8229,15082,0.139,551
2020-10-24T05:16:33,42.805,6.029,CST-1368DR,5880,8229,15083,0.139,551
2020-10-24T05:19:35,42.805,6.029,CST-1368DR,5880,8229,15083,0.139,551
2020-10-24T05:22:36,42.805,6.029,CST-1368DR,5880,8229,15081,0.139,551
2020-10-24T05:25:38,42.805,6.029,CST-1368DR,5880,8229,15081,0.139,551
2020-10-24T05:28:39,42.805,6.029,CST-1368DR,5880,8229,15081,0.139,551
2020-10-24T05:31:41,42.805,6.029,CST-1368DR,5880,8229,15081,0.139,551
2020-10-24T05:34:43,42.805,6.029,CST-1368DR,5880,8229,15082,0.139,551
2020-10-24T05:37:44,42.805,6.029,CST-1368DR,5880,8228,15080,0.140,551
2020-10-24T05:40:46,42.805,6.029,CST-1368DR,5879,8229,15084,0.139,551
2020-10-24T05:43:47,42.805,6.029,CST-1368DR,5879,8227,15081,0.139,551
2020-10-24T05:46:49,42.805,6.029,CST-1368DR,5879,8229,15084,0.139,551
2020-10-24T05:49:50,42.805,6.029,CST-1368DR,5879,8226,15078,0.140,551
2020-10-24T05:52:52,42.805,6.029,CST-1368DR,5879,8227,15082,0.139,551
2020-10-24T05:55:54,42.805,6.029,CST-1368DR,5879,8227,15080,0.140,551
2020-10-24T05:58:55,42.805,6.029,CST-1368DR,5879,8227,15082,0.139,551
2020-10-24T06:01:57,42.805,6.029,CST-1368DR,5879,8226,15079,0.140,551
2020-10-24T06:04:58,42.805,6.029,CST-1368DR,5879,8227,15081,0.139,551
2020-10-24T06:08:00,42.805,6.029,CST-1368DR,5879,8227,15081,0.139,551
2020-10-24T06:11:02,42.805,6.029,CST-1368DR,5879,8227,15081,0.139,551
2020-10-24T06:14:03,42.805,6.029,CST-1368DR,5878,8226,15082,0.139,551
2020-10-24T06:17:05,42.805,6.029,CST-1368DR,5878,8226,15082,0.139,551
2020-10-24T06:20:06,42.805,6.029,CST-1368DR,5878,8227,15083,0.139,551
2020-10-24T06:23:08,42.805,6.029,CST-1368DR,5878,8227,15083,0.139,551
2020-10-24T06:26:09,42.805,6.029,CST-1368DR,5878,8227,15083,0.139,551
2020-10-24T06:29:11,42.805,6.029,CST-1368DR,5878,8226,15081,0.139,551
2020-10-24T06:32:13,42.805,6.029,CST-1368DR,5878,8226,15081,0.139,551
2020-10-24T06:35:14,42.805,6.029,CST-1368DR,5878,8225,15080,0.140,551
2020-10-24T06:38:16,42.805,6.029,CST-1368DR,5878,8226,15081,0.139,551
2020-10-24T06:41:17,42.805,6.029,CST-1368DR,5878,8226,15081,0.139,551
2020-10-24T06:44:19,42.805,6.029,CST-1368DR,5878,8226,15081,0.139,551
2020-10-24T06:47:21,42.805,6.029,CST-1368DR,5878,8225,15079,0.140,551
2020-10-24T06:50:22,42.805,6.029,CST-1368DR,5877,8225,15083,0.139,551
2020-10-24T06:53:24,42.805,6.029,CST-1368DR,5877,8224,15081,0.139,551
2020-10-24T06:56:25,42.805,6.029,CST-1368DR,5877,8225,15082,0.139,551
2020-10-24T06:59:27,42.805,6.029,CST-1368DR,5877,8225,15081,0.139,551
2020-10-24T07:02:28,42.805,6.029,CST-1368DR,5877,8225,15082,0.139,551
2020-10-24T07:05:30,42.805,6.029,CST-1368DR,5877,8225,15081,0.139,551
2020-10-24T07:08:32,42.805,6.029,CST-1368DR,5877,8224,15080,0.140,551
2020-10-24T07:11:33,42.805,6.029,CST-1368DR,5877,8224,15080,0.140,551
2020-10-24T07:14:35,42.805,6.029,CST-1368DR,5877,8224,15080,0.140,551
2020-10-24T07:17:36,42.805,6.029,CST-1368DR,5877,8224,15080,0.140,551
2020-10-24T07:20:38,42.805,6.029,CST-1368DR,5876,8224,15083,0.139,551
2020-10-24T07:23:39,42.805,6.029,CST-1368DR,5877,8222,15077,0.141,551
2020-10-24T07:26:41,42.805,6.029,CST-1368DR,5876,8224,15082,0.139,551
2020-10-24T07:29:43,42.805,6.029,CST-1368DR,5876,8224,15082,0.139,551
2020-10-24T07:32:44,42.805,6.029,CST-1368DR,5876,8224,15082,0.139,551
2020-10-24T07:35:46,42.805,6.029,CST-1368DR,5876,8224,15082,0.139,551
2020-10-24T07:38:47,42.805,6.029,CST-1368DR,5876,8223,15082,0.139,551
2020-10-24T07:41:49,42.805,6.029,CST-1368DR,5876,8223,15082,0.139,551
2020-10-24T07:44:51,42.805,6.029,CST-1368DR,5876,8222,15079,0.140,551
2020-10-24T07:47:52,42.805,6.029,CST-1368DR,5876,8223,15080,0.140,551
2020-10-24T07:50:54,42.805,6.029,CST-1368DR,5876,8224,15082,0.139,551
2020-10-24T07:53:55,42.805,6.029,CST-1368DR,5876,8223,15081,0.139,551
2020-10-24T07:56:57,42.805,6.029,CST-1368DR,5876,8222,15078,0.140,551
2020-10-24T07:59:58,42.805,6.029,CST-1368DR,5876,8222,15080,0.140,551
2020-10-24T08:03:00,42.805,6.029,CST-1368DR,5876,8223,15081,0.139,551
2020-10-24T08:06:02,42.805,6.029,CST-1368DR,5875,8223,15083,0.139,551
2020-10-24T08:09:03,42.805,6.029,CST-1368DR,5875,8223,15083,0.139,551
2020-10-24T08:12:05,42.805,6.029,CST-1368DR,5875,8222,15081,0.139,551
2020-10-24T08:15:06,42.805,6.029,CST-1368DR,5875,8222,15081,0.139,551
2020-10-24T08:18:08,42.805,6.029,CST-1368DR,5875,8222,15082,0.139,551
2020-10-24T08:21:10,42.805,6.029,CST-1368DR,5875,8222,15082,0.139,551
2020-10-24T08:24:11,42.805,6.029,CST-1368DR,5875,8222,15081,0.139,550
2020-10-24T08:27:13,42.805,6.029,CST-1368DR,5875,8222,15082,0.139,551
2020-10-24T08:30:14,42.805,6.029,CST-1368DR,5875,8222,15081,0.139,551
2020-10-24T08:33:16,42.805,6.029,CST-1368DR,5875,8221,15080,0.140,551
2020-10-24T08:36:17,42.805,6.029,CST-1368DR,5875,8222,15081,0.139,551
2020-10-24T08:39:19,42.805,6.029,CST-1368DR,5875,8222,15081,0.139,551
2020-10-24T08:42:21,42.805,6.029,CST-1368DR,5875,8222,15081,0.139,551
2020-10-24T08:45:22,42.805,6.029,CST-1368DR,5875,8222,15081,0.139,551
2020-10-24T08:48:24,42.805,6.029,CST-1368DR,5875,8221,15080,0.140,551
2020-10-24T08:51:25,42.805,6.029,CST-1368DR,5874,8219,15079,0.140,551
2020-10-24T08:54:27,42.805,6.029,CST-1368DR,5875,8221,15080,0.140,551
2020-10-24T08:57:28,42.805,6.029,CST-1368DR,5874,8221,15082,0.139,551
2020-10-24T09:00:30,42.805,6.029,CST-1368DR,5874,8220,15081,0.139,551
2020-10-24T09:03:32,42.805,6.029,CST-1368DR,5874,8220,15080,0.140,551
2020-10-24T09:06:33,42.805,6.029,CST-1368DR,5874,8221,15081,0.139,551
2020-10-24T09:09:35,42.805,6.029,CST-1368DR,5874,8221,15083,0.139,551
2020-10-24T09:12:36,42.805,6.029,CST-1368DR,5874,8221,15082,0.139,551
2020-10-24T09:15:38,42.805,6.029,CST-1368DR,5874,8220,15080,0.140,551
2020-10-24T09:18:40,42.805,6.029,CST-1368DR,5874,8220,15080,0.140,551
2020-10-24T09:21:41,42.805,6.029,CST-1368DR,5874,8220,15080,0.140,551
2020-10-24T09:24:43,42.805,6.029,CST-1368DR,5874,8220,15081,0.139,551
2020-10-24T09:27:44,42.805,6.029,CST-1368DR,5874,8220,15080,0.140,551
2020-10-24T09:30:46,42.805,6.029,CST-1368DR,5874,8219,15078,0.140,550
2020-10-24T09:33:47,42.805,6.029,CST-1368DR,5874,8219,15079,0.140,551
2020-10-24T09:36:49,42.805,6.029,CST-1368DR,5874,8217,15074,0.141,551
2020-10-24T09:39:51,42.805,6.029,CST-1368DR,5874,8220,15080,0.140,551
2020-10-24T09:42:52,42.805,6.029,CST-1368DR,5874,8220,15080,0.140,551
2020-10-24T09:45:54,42.805,6.029,CST-1368DR,5873,8220,15083,0.139,551
2020-10-24T09:48:55,42.805,6.029,CST-1368DR,5873,8219,15082,0.139,551
2020-10-24T09:51:57,42.805,6.029,CST-1368DR,5873,8219,15082,0.139,551
2020-10-24T09:54:59,42.805,6.029,CST-1368DR,5873,8219,15082,0.139,551
2020-10-24T09:58:00,42.805,6.029,CST-1368DR,5873,8218,15080,0.140,551
2020-10-24T10:01:02,42.805,6.029,CST-1368DR,5873,8219,15081,0.139,550
2020-10-24T10:04:03,42.805,6.029,CST-1368DR,5873,8219,15082,0.139,551
2020-10-24T10:07:05,42.805,6.029,CST-1368DR,5873,8220,15082,0.139,551
2020-10-24T10:10:06,42.805,6.029,CST-1368DR,5873,8218,15080,0.140,551
2020-10-24T10:13:08,42.805,6.029,CST-1368DR,5873,8217,15077,0.141,551
2020-10-24T10:16:10,42.805,6.029,CST-1368DR,5873,8219,15081,0.139,551
2020-10-24T10:19:11,42.805,6.029,CST-1368DR,5873,8219,15081,0.139,551
2020-10-24T10:22:13,42.805,6.029,CST-1368DR,5873,8219,15081,0.139,551
2020-10-24T10:25:14,42.805,6.029,CST-1368DR,5873,8218,15080,0.140,551
2020-10-24T10:28:16,42.805,6.029,CST-1368DR,5873,8218,15079,0.140,551
2020-10-24T10:31:17,42.805,6.029,CST-1368DR,5873,8218,15079,0.140,551
2020-10-24T10:34:19,42.805,6.029,CST-1368DR,5873,8217,15078,0.140,551
2020-10-24T10:37:21,42.805,6.029,CST-1368DR,5873,8219,15081,0.139,551
2020-10-24T10:40:22,42.805,6.029,CST-1368DR,5873,8219,15080,0.140,551
2020-10-24T10:43:24,42.805,6.029,CST-1368DR,5873,8218,15079,0.140,551
2020-10-24T10:46:25,42.805,6.029,CST-1368DR,5873,8218,15079,0.140,551
2020-10-24T10:49:27,42.805,6.029,CST-1368DR,5873,8218,15079,0.140,551
2020-10-24T10:52:29,42.805,6.029,CST-1368DR,5872,8218,15082,0.139,551
2020-10-24T10:55:30,42.805,6.029,CST-1368DR,5872,8217,15080,0.140,551
2020-10-24T10:58:32,42.805,6.029,CST-1368DR,5872,8218,15082,0.139,551
2020-10-24T11:01:33,42.805,6.029,CST-1368DR,5872,8216,15078,0.140,551
2020-10-24T11:04:35,42.805,6.029,CST-1368DR,5872,8217,15080,0.140,551
2020-10-24T11:07:36,42.805,6.029,CST-1368DR,5872,8217,15080,0.140,551
2020-10-24T11:10:38,42.805,6.029,CST-1368DR,5872,8218,15082,0.139,551
2020-10-24T11:13:40,42.805,6.029,CST-1368DR,5872,8217,15079,0.140,551
2020-10-24T11:16:41,42.805,6.029,CST-1368DR,5872,8217,15080,0.140,551
2020-10-24T11:19:43,42.805,6.029,CST-1368DR,5872,8217,15079,0.140,551
2020-10-24T11:22:44,42.805,6.029,CST-1368DR,5872,8217,15080,0.140,551
2020-10-24T11:25:46,42.805,6.029,CST-1368DR,5872,8218,15082,0.139,551
2020-10-24T11:28:47,42.805,6.029,CST-1368DR,5872,8216,15078,0.140,551
2020-10-24T11:31:49,42.805,6.029,CST-1368DR,5872,8216,15078,0.140,551
2020-10-24T11:34:51,42.805,6.029,CST-1368DR,5872,8218,15082,0.139,551
2020-10-24T11:37:52,42.805,6.029,CST-1368DR,5872,8217,15079,0.140,551
2020-10-24T11:40:54,42.805,6.029,CST-1368DR,5872,8217,15079,0.140,551
2020-10-24T11:43:55,42.805,6.029,CST-1368DR,5872,8217,15080,0.140,551
2020-10-24T11:46:57,42.805,6.029,CST-1368DR,5872,8217,15080,0.140,551
2020-10-24T11:49:59,42.805,6.029,CST-1368DR,5872,8217,15079,0.140,551
2020-10-24T11:53:00,42.805,6.029,CST-1368DR,5872,8217,15079,0.140,551
2020-10-24T11:56:02,42.805,6.029,CST-1368DR,5872,8217,15080,0.140,551
2020-10-24T11:59:03,42.805,6.029,CST-1368DR,5872,8217,15079,0.140,551
2020-10-24T12:02:05,42.805,6.029,CST-1368DR,5871,8216,15080,0.140,551
2020-10-24T12:05:06,42.805,6.029,CST-1368DR,5871,8217,15081,0.139,551
2020-10-24T12:08:08,42.805,6.029,CST-1368DR,5872,8216,15078,0.140,551
2020-10-24T12:11:10,42.805,6.029,CST-1368DR,5871,8215,15079,0.140,551
2020-10-24T12:14:11,42.805,6.029,CST-1368DR,5871,8216,15080,0.140,551
2020-10-24T12:17:13,42.805,6.029,CST-1368DR,5871,8216,15079,0.140,551
2020-10-24T12:20:14,42.805,6.029,CST-1368DR,5871,8216,15081,0.139,551
2020-10-24T12:23:16,42.805,6.029,CST-1368DR,5871,8216,15080,0.140,551
2020-10-24T12:26:18,42.805,6.029,CST-1368DR,5871,8215,15079,0.140,551
2020-10-24T12:29:19,42.805,6.029,CST-1368DR,5871,8215,15079,0.140,551
2020-10-24T12:32:21,42.805,6.029,CST-1368DR,5871,8216,15079,0.140,551
2020-10-24T12:35:22,42.805,6.029,CST-1368DR,5871,8215,15079,0.140,551
2020-10-24T12:38:24,42.805,6.029,CST-1368DR,5871,8216,15081,0.139,551
2020-10-24T12:41:25,42.805,6.029,CST-1368DR,5871,8216,15079,0.140,551
2020-10-24T12:44:27,42.805,6.029,CST-1368DR,5871,8216,15080,0.140,551
2020-10-24T12:47:29,42.805,6.029,CST-1368DR,5871,8215,15079,0.140,551
2020-10-24T12:50:30,42.805,6.029,CST-1368DR,5871,8216,15079,0.140,551
2020-10-24T12:53:32,42.805,6.029,CST-1368DR,5871,8215,15079,0.140,551
2020-10-24T12:56:33,42.805,6.029,CST-1368DR,5871,8216,15080,0.140,551
2020-10-24T12:59:35,42.805,6.029,CST-1368DR,5871,8216,15080,0.140,551
2020-10-24T13:02:37,42.805,6.029,CST-1368DR,5871,8215,15079,0.140,551
2020-10-24T13:05:38,42.805,6.029,CST-1368DR,5871,8215,15078,0.140,551
2020-10-24T13:08:40,42.805,6.029,CST-1368DR,5871,8216,15080,0.140,551
2020-10-24T13:11:41,42.805,6.029,CST-1368DR,5871,8215,15079,0.140,551
2020-10-24T13:14:43,42.805,6.029,CST-1368DR,5871,8215,15078,0.140,551
2020-10-24T13:17:44,42.805,6.029,CST-1368DR,5871,8215,15078,0.140,551
2020-10-24T13:20:46,42.805,6.029,CST-1368DR,5871,8215,15078,0.140,551
2020-10-24T13:23:48,42.805,6.029,CST-1368DR,5871,8215,15078,0.140,551
2020-10-24T13:26:49,42.805,6.029,CST-1368DR,5870,8215,15081,0.139,551
2020-10-24T13:29:51,42.805,6.029,CST-1368DR,5870,8215,15080,0.140,551
2020-10-24T13:32:52,42.805,6.029,CST-1368DR,5870,8215,15080,0.140,551
2020-10-24T13:35:54,42.805,6.029,CST-1368DR,5870,8215,15081,0.139,551
2020-10-24T13:38:55,42.805,6.029,CST-1368DR,5870,8214,15078,0.140,551
2020-10-24T13:41:57,42.805,6.029,CST-1368DR,5870,8215,15080,0.140,551
2020-10-24T13:44:59,42.805,6.029,CST-1368DR,5870,8214,15079,0.140,551
2020-10-24T13:48:00,42.805,6.029,CST-1368DR,5870,8215,15081,0.139,551
2020-10-24T13:51:02,42.805,6.029,CST-1368DR,5870,8215,15081,0.139,551
2020-10-24T13:54:03,42.805,6.029,CST-1368DR,5870,8214,15078,0.140,551
2020-10-24T13:57:05,42.805,6.029,CST-1368DR,5870,8213,15078,0.140,551
2020-10-24T14:00:07,42.805,6.029,CST-1368DR,5870,8214,15080,0.140,551
2020-10-24T14:03:08,42.805,6.029,CST-1368DR,5870,8214,15079,0.140,550
2020-10-24T14:06:10,42.805,6.029,CST-1368DR,5870,8214,15078,0.140,551
2020-10-24T14:09:11,42.805,6.029,CST-1368DR,5870,8214,15080,0.140,551
2020-10-24T14:12:13,42.805,6.029,CST-1368DR,5870,8213,15077,0.141,551
2020-10-24T14:15:14,42.805,6.029,CST-1368DR,5870,8213,15078,0.140,551
2020-10-24T14:18:16,42.805,6.029,CST-1368DR,5870,8214,15080,0.140,551
2020-10-24T14:21:18,42.805,6.029,CST-1368DR,5870,8214,15078,0.140,551
2020-10-24T14:24:19,42.805,6.029,CST-1368DR,5870,8214,15079,0.140,551
2020-10-24T14:27:21,42.805,6.029,CST-1368DR,5870,8213,15078,0.140,551
2020-10-24T14:30:22,42.805,6.029,CST-1368DR,5870,8214,15079,0.140,551
2020-10-24T14:33:24,42.805,6.029,CST-1368DR,5870,8214,15079,0.140,551
2020-10-24T14:36:26,42.805,6.029,CST-1368DR,5869,8210,15075,0.141,551
2020-10-24T14:39:27,42.805,6.029,CST-1368DR,5870,8213,15077,0.141,551
2020-10-24T14:42:29,42.805,6.029,CST-1368DR,5870,8213,15076,0.141,551
2020-10-24T14:45:30,42.805,6.029,CST-1368DR,5870,8214,15079,0.140,551
2020-10-24T14:48:32,42.805,6.029,CST-1368DR,5870,8214,15078,0.140,551
2020-10-24T14:51:33,42.805,6.029,CST-1368DR,5869,8213,15080,0.140,551
2020-10-24T14:54:35,42.805,6.029,CST-1368DR,5869,8212,15078,0.140,551
2020-10-24T14:57:37,42.805,6.029,CST-1368DR,5869,8213,15080,0.140,550
2020-10-24T15:00:38,42.805,6.029,CST-1368DR,5869,8214,15081,0.139,551
2020-10-24T15:03:40,42.805,6.029,CST-1368DR,5869,8214,15081,0.139,551
2020-10-24T15:06:41,42.805,6.029,CST-1368DR,5869,8213,15079,0.140,551
2020-10-24T15:09:43,42.805,6.029,CST-1368DR,5869,8212,15078,0.140,551
2020-10-24T15:12:44,42.805,6.029,CST-1368DR,5869,8213,15080,0.140,551
2020-10-24T15:15:46,42.805,6.029,CST-1368DR,5869,8212,15077,0.141,551
2020-10-24T15:18:48,42.805,6.029,CST-1368DR,5869,8211,15077,0.141,551
2020-10-24T15:21:49,42.805,6.029,CST-1368DR,5869,8212,15077,0.141,551
2020-10-24T15:24:51,42.805,6.029,CST-1368DR,5869,8213,15080,0.140,551
2020-10-24T15:27:52,42.805,6.029,CST-1368DR,5869,8213,15079,0.140,551
2020-10-24T15:30:54,42.805,6.029,CST-1368DR,5869,8213,15079,0.140,551
2020-10-24T15:33:56,42.805,6.029,CST-1368DR,5869,8213,15080,0.140,551
2020-10-24T15:36:57,42.805,6.029,CST-1368DR,5869,8213,15079,0.140,551
2020-10-24T15:39:59,42.805,6.029,CST-1368DR,5869,8212,15077,0.141,551
2020-10-24T15:43:00,42.805,6.029,CST-1368DR,5869,8213,15079,0.140,551
2020-10-24T15:46:02,42.805,6.029,CST-1368DR,5869,8213,15079,0.140,551
2020-10-24T15:49:03,42.805,6.029,CST-1368DR,5869,8212,15077,0.141,551
2020-10-24T15:52:05,42.805,6.029,CST-1368DR,5869,8213,15079,0.140,551
2020-10-24T15:55:07,42.805,6.029,CST-1368DR,5869,8212,15077,0.141,551
2020-10-24T15:58:08,42.805,6.029,CST-1368DR,5869,8213,15079,0.140,551
2020-10-24T16:01:10,42.805,6.029,CST-1368DR,5869,8213,15079,0.140,551
2020-10-24T16:04:11,42.805,6.029,CST-1368DR,5869,8212,15078,0.140,551
2020-10-24T16:07:13,42.805,6.029,CST-1368DR,5869,8212,15078,0.140,551
2020-10-24T16:10:14,42.805,6.029,CST-1368DR,5869,8212,15078,0.140,551
2020-10-24T16:13:16,42.805,6.029,CST-1368DR,5869,8213,15079,0.140,551
2020-10-24T16:16:18,42.805,6.029,CST-1368DR,5869,8213,15079,0.140,551
2020-10-24T16:19:19,42.805,6.029,CST-1368DR,5868,8212,15081,0.139,551
2020-10-24T16:22:21,42.805,6.029,CST-1368DR,5868,8212,15081,0.139,551
2020-10-24T16:25:22,42.805,6.029,CST-1368DR,5868,8212,15081,0.139,551
2020-10-24T16:28:24,42.805,6.029,CST-1368DR,5868,8212,15080,0.140,551
2020-10-24T16:31:26,42.805,6.029,CST-1368DR,5868,8212,15080,0.140,551
2020-10-24T16:34:27,42.805,6.029,CST-1368DR,5868,8212,15081,0.139,551
2020-10-24T16:37:29,42.805,6.029,CST-1368DR,5868,8212,15080,0.140,551
2020-10-24T16:40:30,42.805,6.029,CST-1368DR,5868,8211,15078,0.140,551
2020-10-24T16:43:32,42.805,6.029,CST-1368DR,5868,8212,15080,0.140,551
2020-10-24T16:46:33,42.805,6.029,CST-1368DR,5868,8211,15079,0.140,551
2020-10-24T16:49:35,42.805,6.029,CST-1368DR,5868,8211,15078,0.140,551
2020-10-24T16:52:37,42.805,6.029,CST-1368DR,5868,8212,15080,0.140,551
2020-10-24T16:55:38,42.805,6.029,CST-1368DR,5868,8212,15080,0.140,551
2020-10-24T16:58:40,42.805,6.029,CST-1368DR,5868,8212,15081,0.139,551
2020-10-24T17:01:41,42.805,6.029,CST-1368DR,5868,8211,15079,0.140,551
2020-10-24T17:04:43,42.805,6.029,CST-1368DR,5868,8211,15078,0.140,551
2020-10-24T17:07:45,42.805,6.029,CST-1368DR,5868,8212,15080,0.140,551
2020-10-24T17:10:46,42.805,6.029,CST-1368DR,5868,8212,15080,0.140,551
2020-10-24T17:13:48,42.805,6.029,CST-1368DR,5868,8212,15080,0.140,551
2020-10-24T17:16:49,42.805,6.029,CST-1368DR,5868,8212,15079,0.140,551
2020-10-24T17:19:51,42.805,6.029,CST-1368DR,5868,8211,15079,0.140,551
2020-10-24T17:22:52,42.805,6.029,CST-1368DR,5868,8210,15077,0.141,551
2020-10-24T17:25:54,42.805,6.029,CST-1368DR,5868,8211,15079,0.140,551
2020-10-24T17:28:56,42.805,6.029,CST-1368DR,5868,8212,15080,0.140,551
2020-10-24T17:31:57,42.805,6.029,CST-1368DR,5868,8210,15077,0.141,551
2020-10-24T17:34:59,42.805,6.029,CST-1368DR,5868,8211,15079,0.140,551
2020-10-24T17:38:00,42.805,6.029,CST-1368DR,5868,8211,15078,0.140,551
2020-10-24T17:41:02,42.805,6.029,CST-1368DR,5868,8211,15078,0.140,551
2020-10-24T17:44:03,42.805,6.029,CST-1368DR,5868,8211,15078,0.140,551
2020-10-24T17:47:05,42.805,6.029,CST-1368DR,5868,8210,15076,0.141,551
2020-10-24T17:50:07,42.805,6.029,CST-1368DR,5868,8210,15077,0.141,551
2020-10-24T17:53:08,42.805,6.029,CST-1368DR,5867,8212,15082,0.139,551
2020-10-24T17:56:10,42.805,6.029,CST-1368DR,5868,8211,15078,0.140,551
2020-10-24T17:59:11,42.805,6.029,CST-1368DR,5868,8211,15078,0.140,551
2020-10-24T18:02:13,42.805,6.029,CST-1368DR,5867,8211,15080,0.140,551
2020-10-24T18:05:15,42.805,6.029,CST-1368DR,5867,8211,15081,0.139,551
2020-10-24T18:08:16,42.805,6.029,CST-1368DR,5867,8210,15080,0.140,551
2020-10-24T18:11:18,42.805,6.029,CST-1368DR,5867,8211,15080,0.140,551
2020-10-24T18:14:19,42.805,6.029,CST-1368DR,5867,8211,15081,0.139,551
2020-10-24T18:17:21,42.805,6.029,CST-1368DR,5867,8210,15080,0.140,551
2020-10-24T18:20:22,42.805,6.029,CST-1368DR,5867,8211,15081,0.139,551